Flag for Germany Weather past 2 weeks in Pinneberg, Schleswig-Holstein, Germany

39 °F


Feels Like: 35 °F
Forecast: 37 / 50 °F
Wind: 6 mph from East

Location: Hamburg-Fuhlsbuettel

Current Time: Oct 10, 2015 at 6:49:21 AM

Latest Report: Oct 10, 2015 at 5:50 AM

Visibility: 10 mi

Pressure: 30.24 "Hg

Humidity: 93%

Dew point: 37 °F

Location of PinnebergLocation

Historic Weather in Pinneberg — Graph


Pinneberg temperature yesterday

Maximum temperature yesterday: 54 °F (at 5:50 PM)
Minimum temperature yesterday: 46 °F (at 10:50 PM)
Average temperature yesterday: 50 °F

Past Weeks' High & Low Weather Summary

High66 °F (Oct 3, 3:20 PM)100% (Sep 25, 5:20 AM)30.72 "Hg (Sep 25, 5:20 AM)
Low37 °F (Sep 29, 5:20 AM)49% (Oct 3, 3:20 PM)29.71 "Hg (Oct 6, 11:50 AM)
Average53 °F87%30.24 "Hg
* Reported Sep 25 5:20 AM — Oct 10 5:20 AM, Pinneberg, Weather by CustomWeather, © 2015

Note: Actual official high and low records may vary slightly from our data, if they occured in-between our weather recording intervals... More about our weather records


Pinneberg weather history for previous 24 hours

Time TempWeatherWind HumidityBarometerVisibility
5:20 AM
Sat, Oct 10
39 °FClear.5 mph93%30.27 "Hg10 mi
4:50 AM39 °FClear.7 mph93%30.27 "Hg10 mi
4:20 AM39 °FClear.6 mph93%30.27 "Hg10 mi
3:50 AM41 °FClear.3 mph93%30.27 "Hg10 mi
3:20 AM41 °FClear.5 mph93%30.27 "Hg10 mi
2:50 AM41 °FClear.6 mph93%30.24 "Hg10 mi
2:20 AM41 °FClear.6 mph93%30.24 "Hg10 mi
1:50 AM43 °FClear.5 mph87%30.24 "Hg10 mi
1:20 AM43 °FClear.6 mph87%30.24 "Hg10 mi
12:50 AM45 °FClear.7 mph87%30.24 "Hg10 mi
12:20 AM45 °FClear.7 mph87%30.24 "Hg10 mi
11:20 PM
Fri, Oct 9
46 °FClear.7 mph87%30.27 "Hg10 mi
10:50 PM46 °FPassing clouds.7 mph87%30.27 "HgN/A
10:20 PM48 °FPassing clouds.6 mph82%30.27 "HgN/A
9:50 PM50 °FPassing clouds.8 mph76%30.24 "HgN/A
9:20 PM50 °FPassing clouds.10 mph82%30.24 "HgN/A
8:50 PM52 °FPassing clouds.7 mph77%30.24 "HgN/A
8:20 PM52 °FPassing clouds.6 mph77%30.24 "HgN/A
7:50 PM52 °FPassing clouds.5 mph82%30.24 "HgN/A
7:20 PM52 °FBroken clouds.5 mph82%30.24 "HgN/A
6:50 PM52 °FBroken clouds.6 mph82%30.21 "HgN/A
6:20 PM54 °FPartly sunny.3 mph77%30.21 "HgN/A
5:50 PM54 °FPartly sunny.5 mph82%30.21 "HgN/A
5:20 PM52 °FBroken clouds.5 mph88%30.21 "HgN/A
4:50 PM52 °FBroken clouds.5 mph88%30.21 "Hg6 mi
4:20 PM52 °FPartly sunny.6 mph82%30.21 "Hg6 mi
3:50 PM52 °FBroken clouds.7 mph82%30.18 "Hg5 mi
3:20 PM52 °FBroken clouds.8 mph88%30.18 "Hg6 mi
2:50 PM52 °FBroken clouds.8 mph82%30.18 "Hg6 mi
2:20 PM52 °FBroken clouds.9 mph88%30.18 "Hg5 mi
1:50 PM52 °FBroken clouds.7 mph88%30.21 "Hg5 mi
1:20 PM50 °FPartly sunny.6 mph94%30.21 "Hg6 mi
12:50 PM50 °FPartly sunny.7 mph94%30.21 "Hg5 mi
12:20 PM50 °FPartly sunny.8 mph94%30.18 "Hg5 mi
11:50 AM50 °FPartly sunny.8 mph94%30.21 "HgN/A
11:20 AM50 °FPartly sunny.7 mph94%30.18 "HgN/A
10:50 AM50 °FPartly sunny.7 mph94%30.18 "Hg4 mi
10:20 AM48 °FFog.8 mph100%30.18 "Hg3 mi
9:50 AM48 °FDrizzle. Fog.7 mph100%30.18 "Hg1 mi
9:20 AM48 °FDrizzle. Fog.7 mph100%30.18 "Hg1 mi
8:50 AM48 °FDrizzle. Fog.7 mph100%30.18 "Hg1 mi
8:20 AM48 °FDrizzle. Fog.6 mph100%30.15 "Hg1 mi
7:50 AM50 °FDrizzle. Fog.6 mph94%30.15 "Hg2 mi
7:20 AM50 °FDrizzle. Fog.5 mph94%30.15 "Hg2 mi
6:50 AM50 °FFog.6 mph94%30.15 "Hg2 mi
6:20 AM50 °FFog.6 mph94%30.15 "Hg2 mi
Weather by CustomWeather, © 2015

See weather overviewHow to use our weather pages